Location: Unspecified
(0.0000°N, 0.0000°E)
Time: 08:28:52
(UTC+00:00)

Hubble Space Telescope - Pass Details

Date: 16 February 2018
Orbit: 537 x 541 km, 28.5° (Epoch: 23 February)

Event Time Altitude Azimuth Distance (km) Brightness Sun altitude
Exits shadow 04:57:40 14° 352° (N) 1,547 2.9 -18.6°
Drops below altitude 10° 04:58:57 10° 9° (N) 1,779 3.4 -18.3°
Sets 05:01:59 0° 32° (NNE) 2,669 4.6 -17.6°
